Location: Palomar Mountain Lodge
(33.3110°N, 116.8495°W)
Time: 18:17:48
(UTC-08:00)

NOAA 6 - Pass Details

Date: 13 December 2025
Orbit: 767 x 781 km, 98.6° (Epoch: 17 January)

Event Time Altitude Azimuth Distance (km) Brightness Sun altitude
Rises 18:13:07 0° 151° (SSE) 3,230 7.1 -18.7°
Reaches altitude 10° 18:15:29 10° 145° (SE) 2,305 6.3 -19.2°
Maximum altitude 18:20:20 47° 73° (ENE) 1,016 4.2 -20.1°
Drops below altitude 10° 18:25:11 10° 0° (N) 2,310 6.3 -21.1°
Sets 18:27:34 0° 355° (N) 3,239 7.2 -21.6°
